Location: Newark
(48.1500°N, 2.9667°W)
Time: 03:20:32
(UTC+00:00)

Transit 2A - Pass Details

Date: 27 January 2020
Orbit: 600 x 959 km, 66.7° (Epoch: 16 February)

Event Time Altitude Azimuth Distance (km) Brightness Sun altitude
Rises 01:56:39 0° 330° (NNW) 2,914 - -55.1°
Reaches altitude 10° 01:59:56 10° 357° (N) 2,052 - -54.7°
Maximum altitude 02:02:25 14° 29° (NNE) 1,830 - -54.4°
Drops below altitude 10° 02:04:58 10° 62° (ENE) 2,145 - -54.1°
Sets 02:08:32 0° 87° (E) 3,142 - -53.7°
